Starlink 30925

operational
NORAD ID: 58406 Int'l Des: 2023-180 Owner: SPXS Country: US Constellation: starlink
LEOCIRCULAR

关于 Starlink 30925

正在加载描述...

实时位置

正在加载3D地球...

即将过境

高度历史

Altitude vs Time

uPlot chart will show altitude changes over time

两行轨道根数

1 58406U 23180E 25300.81425948 .00005720 00000-0 43820-3 0 9992
2 58406 43.0013 58.3396 0001209 268.8178 91.2526 15.02533112107480
Epoch: Oct 27, 2025 • Age: 16 hours

当前状态

高度 566.4 km
速度 7.58 km/s
星下点 -29.78°S, 170.74°E
发射日期 Nov 22, 2023
运行时间 1.9 years
类型 internet

技术详情

分类 Payload
质量 730.00 kg
干质量 700.00 kg
总质量 730.00 kg
长度 0.30 m
直径 4.10 m
跨度 29.00 m
形状 Box + pan
制造商 SPXS
平台类型 Starlink V2M
阶段状态 In Orbit
所有者/国家 SPXS/US

大型星座

Loading constellations...